Location: Poughquag
(41.6090°N, 73.6820°W)
Time: 02:20:58
(UTC-04:00)

Transit 2A - Pass Details

Date: 06 June 2020
Orbit: 592 x 967 km, 66.7° (Epoch: 06 July)

Event Time Altitude Azimuth Distance (km) Brightness Sun altitude
Rises 12:57:55 0° 221° (SW) 3,031 9.3 71.1°
Reaches altitude 10° 13:00:10 10° 226° (SW) 2,171 8.7 71.1°
Maximum altitude 13:05:02 56° 305° (NW) 906 7.2 71.0°
Drops below altitude 10° 13:10:31 10° 23° (NNE) 2,434 8.5 70.8°
Sets 13:13:10 0° 28° (NNE) 3,432 9.2 70.7°
